Mosinee, WI

9:02 PM CDT on July 25, 2017 (GMT -0500)
Central Wisconsin

Weather History for KCWA - February, 2014

Change the Weather History Date:

Thursday, February 27, 2014

  Actual Average Record
Temperature  
Mean Temperature -6 °F -  
Max Temperature 1 °F 29 °F 53 °F (2016)
Min Temperature -14 °F 12 °F -14 °F (2014)
Degree Days  
Heating Degree Days 72    
Moisture  
Dew Point -18 °F    
Average Humidity 58    
Maximum Humidity 71    
Minimum Humidity 35    
Precipitation  
Precipitation 0.00 in - - ()
Sea Level Pressure  
Sea Level Pressure 29.94 in    
Wind  
Wind Speed 12 mph (WNW)    
Max Wind Speed 20 mph    
Max Gust Speed 28 mph    
Visibility 9 miles    
Events      
Averages and records for this station are not official NWS values.
T = Trace of Precipitation, MM = Missing Value Source: NWS Daily Summary

Daily Weather History Graph

Daily Weather History Graph

Search for Another Location

Airport or City:

Trip Planner

Search our weather history database for the weather conditions in past years. The results will help you decide how hot, cold, wet, or windy it might be!

Date:

Astronomy

Feb. 27, 2014 Rise Set
Actual Time 6:39 AM CST 5:43 PM CST
Civil Twilight 6:10 AM CST 6:13 PM CST
Nautical Twilight 5:36 AM CST 6:47 PM CST
Astronomical Twilight 5:02 AM CST 7:20 PM CST
Moon 5:15 AM CST (2/27) 4:07 PM CST (2/27)
Length of Visible Light 12h 02m
Length of Day
11h 04m
Waning Crescent, 4% of the Moon is Illuminated
Feb 27
Waning Crescent
Mar 1
New
Mar 8
First Quarter
Mar 16
Full
Mar 23
Last Quarter

Hourly Weather History & Observations

Time (CST) Temp. Windchill Dew Point Humidity Pressure Visibility Wind Dir Wind Speed Gust Speed Precip Events Conditions
12:15 AM 1.4 °F -19.4 °F -7.6 °F 66% 29.63 in 5.0 mi NW 18.4 mph 27.6 mph N/A   Haze
12:35 AM 1.4 °F -18.2 °F -9.4 °F 61% 29.65 in 5.0 mi NW 16.1 mph 21.9 mph N/A   Haze
12:55 AM -0.4 °F -19.2 °F -9.4 °F 66% 29.67 in 5.0 mi NW 13.8 mph 26.5 mph N/A   Haze
1:15 AM -0.4 °F -22.3 °F -9.4 °F 66% 29.68 in 4.0 mi NW 19.6 mph 25.3 mph N/A   Haze
1:35 AM -0.4 °F -19.9 °F -11.2 °F 60% 29.70 in 7.0 mi NW 15.0 mph 21.9 mph N/A   Clear
1:55 AM -2.2 °F -22.9 °F -11.2 °F 66% 29.72 in 7.0 mi NW 16.1 mph 23.0 mph N/A   Clear
2:15 AM -4.0 °F -25.8 °F -13.0 °F 65% 29.73 in 5.0 mi NW 17.3 mph 24.2 mph N/A   Haze
2:35 AM -4.0 °F -25.2 °F -13.0 °F 65% 29.74 in 10.0 mi NW 16.1 mph 20.7 mph N/A   Clear
2:55 AM -4.0 °F -24.5 °F -13.0 °F 65% 29.75 in 7.0 mi NW 15.0 mph 27.6 mph N/A   Clear
3:15 AM -5.8 °F -26.0 °F -13.0 °F 71% 29.77 in 5.0 mi NW 13.8 mph 24.2 mph N/A   Haze
3:35 AM -5.8 °F -26.8 °F -13.0 °F 71% 29.78 in 7.0 mi NW 15.0 mph 20.7 mph N/A   Clear
4:00 AM -5.8 °F -27.5 °F -14.8 °F 65% 29.80 in 7.0 mi NW 16.1 mph 21.9 mph N/A   Clear
4:15 AM -5.8 °F -26.8 °F -14.8 °F 65% 29.82 in 10.0 mi WNW 15.0 mph 20.7 mph N/A   Clear
4:35 AM -7.6 °F -29.1 °F -14.8 °F 71% 29.84 in 10.0 mi WNW 15.0 mph 24.2 mph N/A   Clear
5:45 AM -9.4 °F -28.9 °F -18.4 °F 65% 29.89 in 10.0 mi WNW 11.5 mph - N/A   Clear
6:50 AM -11.2 °F -31.1 °F -18.4 °F 70% 29.94 in 10.0 mi WNW 11.5 mph 19.6 mph N/A   Clear
7:50 AM -11.2 °F -31.1 °F -20.2 °F 64% 29.98 in 10.0 mi WNW 11.5 mph - N/A   Clear
8:45 AM -9.4 °F -29.8 °F -18.4 °F 65% 30.00 in 10.0 mi WNW 12.7 mph 18.4 mph N/A   Clear
9:53 AM -7.6 °F -26.6 °F -18.4 °F 59% 30.03 in 10.0 mi NW 11.5 mph - N/A   Clear
10:45 AM -5.8 °F -22.4 °F -16.6 °F 60% 30.04 in 10.0 mi WNW 9.2 mph - N/A   Clear
11:45 AM -2.2 °F -18.9 °F -16.6 °F 50% 30.06 in 10.0 mi West 10.4 mph - N/A   Clear
12:45 PM -2.2 °F -18.9 °F -16.6 °F 50% 30.05 in 10.0 mi WSW 10.4 mph - N/A   Clear
1:45 PM -2.2 °F -19.9 °F -18.4 °F 46% 30.06 in 10.0 mi WSW 11.5 mph 17.3 mph N/A   Clear
2:45 PM -0.4 °F -15.7 °F -18.4 °F 43% 30.06 in 10.0 mi WNW 9.2 mph - N/A   Clear
4:45 PM -2.2 °F -18.9 °F -23.8 °F 35% 30.07 in 10.0 mi West 10.4 mph - N/A   Clear
5:45 PM -5.8 °F -19.9 °F -22.0 °F 46% 30.07 in 10.0 mi WSW 6.9 mph - N/A   Clear
6:45 PM -7.6 °F -16.5 °F -22.0 °F 50% 30.08 in 10.0 mi SW 3.5 mph - N/A   Clear
7:50 PM -7.6 °F -16.5 °F -22.0 °F 50% 30.09 in 10.0 mi WSW 3.5 mph - N/A   Clear
8:45 PM -9.4 °F - -23.8 °F 49% 30.09 in 10.0 mi Calm Calm - N/A   Clear
9:15 PM -7.6 °F - -23.8 °F 45% 30.09 in 10.0 mi Calm Calm - N/A   Clear
9:35 PM -7.6 °F -16.5 °F -22.0 °F 50% 30.09 in 10.0 mi NW 3.5 mph - N/A   Clear
9:55 PM -9.4 °F -18.6 °F -23.8 °F 49% 30.10 in 10.0 mi SSW 3.5 mph - N/A   Clear
10:15 PM -9.4 °F - -23.8 °F 49% 30.10 in 10.0 mi Calm Calm - N/A   Clear
10:35 PM -11.2 °F - -22.0 °F 59% 30.09 in 10.0 mi Calm Calm - N/A   Clear
10:55 PM -11.2 °F - -23.8 °F 54% 30.10 in 10.0 mi Calm Calm - N/A   Clear
11:15 PM -14.8 °F - -25.6 °F 58% 30.10 in 10.0 mi Calm Calm - N/A   Clear
11:35 PM -13.0 °F - -23.8 °F 59% 30.09 in 10.0 mi Calm Calm - N/A   Clear
11:55 PM -13.0 °F - -23.8 °F 59% 30.09 in 10.0 mi Calm Calm - N/A   Clear